Wind_Speed
21 19 17 15 13 11 9 9 8 8 8 7 7 7 7 6 6 6 6 5 4 4 4 3 3 3 3 3 3 3 3 3 3 4 5 6 7 8 9 11 12 13 15
23 20 18 16 14 13 11 10 10 9 8 8 8 8 8 7 7 7 7 6 5 5 4 4 4 3 3 3 3 3 3 3 3 4 5 6 7 9 10 11 13 14 15
25 22 20 18 16 14 13 12 11 10 10 10 9 9 9 9 8 8 7 7 6 6 5 5 5 4 4 4 3 3 3 3 4 5 6 6 8 9 10 11 13 14 16
27 24 22 19 17 16 14 13 12 11 11 11 11 10 10 10 9 9 8 7 7 6 6 6 5 5 5 5 4 4 4 4 5 6 7 7 8 9 10 12 13 15 16
29 26 23 21 19 17 15 14 13 13 12 12 12 12 12 11 11 10 9 8 7 7 7 6 6 6 6 5 5 5 5 5 6 7 7 8 9 10 11 12 14 15 17
30 28 25 22 20 18 16 15 14 14 13 13 13 13 13 12 12 11 10 9 8 8 7 7 7 7 6 6 6 6 6 7 7 7 8 9 10 11 12 13 15 16 18
31 29 26 23 21 19 17 16 15 15 14 14 14 14 14 14 13 12 11 10 9 8 8 8 7 7 7 7 7 7 7 7 8 8 9 10 11 12 13 15 16 17 19
33 30 27 24 22 20 18 17 16 16 15 15 16 16 16 15 14 13 12 11 10 9 9 9 8 8 8 8 8 8 8 8 9 9 10 11 12 13 14 16 17 18 20
34 31 28 26 23 21 19 18 17 17 17 17 17 17 17 16 15 14 13 12 11 10 10 10 9 9 9 9 9 9 9 10 10 11 12 12 13 15 16 17 19 20 21
34 33 30 27 25 22 20 19 18 18 18 18 18 18 18 18 17 15 14 13 12 12 11 11 10 10 10 10 10 10 10 11 12 12 13 14 15 16 18 19 20 21 23
36 34 31 29 26 23 22 20 19 19 19 19 19 19 19 19 18 17 15 14 13 13 12 12 12 11 11 11 11 11 12 12 13 14 15 16 17 18 19 21 22 23 24
36 34 32 29 26 24 23 21 20 20 20 20 20 20 20 20 19 18 17 16 15 14 13 13 13 13 13 12 12 13 13 14 15 16 17 18 19 20 21 23 24 25 26
37 36 34 30 27 25 24 22 21 21 21 21 21 21 21 21 20 19 18 17 16 15 15 15 14 14 14 14 14 14 15 16 17 18 19 20 21 22 24 25 26 27 28
37 35 35 32 29 26 25 23 22 21 21 22 22 22 22 22 21 21 20 19 18 17 17 16 16 16 16 16 16 17 17 18 19 20 21 22 23 24 26 27 28 29 29
37 35 34 32 30 28 26 24 22 22 22 22 22 23 24 23 23 22 21 21 20 19 19 18 18 18 18 18 19 19 20 20 21 22 24 25 26 27 28 29 30 30 31
37 35 34 33 32 30 28 25 23 22 22 23 23 24 24 24 24 24 24 23 22 22 21 21 20 20 20 20 21 21 22 23 24 25 26 27 28 29 31 31 32 32 32
39 36 35 35 34 32 29 27 25 24 24 24 24 25 25 26 26 26 26 26 25 24 24 23 23 22 22 23 23 24 24 25 26 28 29 30 31 32 33 33 33 33 33
41 40 38 36 36 34 31 29 28 27 27 26 26 26 26 27 27 28 28 28 27 27 26 26 26 26 26 26 26 27 27 28 29 31 31 32 33 34 34 35 35 34 34
43 42 41 38 37 35 33 32 31 30 30 29 28 28 28 28 29 29 30 30 30 30 30 30 29 29 29 29 29 30 31 32 33 34 34 35 35 36 36 36 36 35 34
43 44 43 41 38 36 36 34 33 33 32 31 31 30 31 31 31 31 32 32 32 32 33 33 33 32 33 33 32 33 34 35 36 37 37 37 38 38 38 37 36 36 35
41 43 43 43 42 40 38 37 36 35 34 34 34 33 33 33 32 32 33 33 34 35 36 36 36 36 37 37 37 36 37 38 38 39 40 40 40 40 39 38 37 37 37
41 40 41 42 43 43 43 40 39 38 37 36 36 36 35 35 35 35 35 35 35 36 38 38 39 39 39 40 41 41 40 39 41 41 42 42 41 41 40 39 38 38 38
42 42 41 42 43 42 43 44 44 42 41 39 38 38 38 38 38 38 38 38 38 39 40 40 40 41 41 42 44 44 44 43 42 41 42 42 42 42 40 39 39 39 38
41 42 43 43 43 44 43 43 43 44 43 42 42 42 41 40 41 41 41 41 41 42 42 43 43 43 44 45 45 46 47 46 44 42 41 42 42 41 40 40 40 39 39
40 41 42 43 43 43 44 44 45 44 45 45 44 43 43 43 43 43 44 44 43 44 45 45 46 46 47 47 46 46 46 45 45 45 43 42 42 42 41 40 40 40 40
39 40 41 41 42 42 43 44 45 45 45 46 46 46 45 45 46 46 47 47 47 48 48 48 48 47 46 47 46 46 45 46 46 46 45 44 43 43 42 42 42 41 41
Wind_Direction
214 216 219 221 220 219 220 223 226 229 229 229 229 230 230 232 235 237 241 251 259 269 277 287 299 306 310 320 330 341 349 357 4 4 5 6 5 5 5 4 3 2 1
214 216 219 221 221 222 222 224 227 228 227 226 225 225 228 231 233 235 240 248 255 262 269 277 283 287 292 299 308 318 329 341 351 354 357 359 0 1 1 360 359 358 357
215 216 218 219 221 223 223 225 228 228 227 225 225 225 227 229 231 232 238 246 250 255 262 269 274 277 279 286 294 302 314 327 335 342 345 350 354 356 356 356 355 354 353
214 215 217 219 220 223 224 226 228 228 227 226 226 225 226 229 231 233 237 243 249 255 260 266 271 273 276 282 289 297 306 315 324 332 336 342 346 349 350 350 350 349 349
214 215 217 219 221 223 225 226 228 229 229 228 227 226 226 228 230 234 237 242 250 257 263 267 271 273 275 281 289 296 303 310 318 325 329 334 338 342 343 344 344 344 344
214 216 218 219 222 224 225 227 228 229 228 228 228 226 226 228 230 234 238 243 249 256 262 266 270 274 277 281 287 294 300 306 313 318 322 327 333 336 338 339 339 340 340
213 216 218 220 222 224 226 227 228 229 228 229 229 228 228 229 230 234 239 244 248 253 259 265 270 273 277 282 288 294 300 306 312 316 321 325 328 331 333 333 334 335 335
213 215 217 220 222 225 227 227 229 230 230 231 231 230 229 229 231 234 238 243 248 254 259 265 270 275 279 284 289 295 301 307 311 315 319 323 325 328 330 331 331 332 332
212 214 217 220 223 226 228 228 230 231 232 233 231 230 230 231 232 235 238 242 247 252 258 264 268 274 280 285 291 296 301 305 309 313 317 320 323 326 327 328 328 329 330
213 216 217 220 223 226 228 230 231 232 233 234 233 232 231 233 234 236 239 243 248 252 258 263 268 274 281 286 291 296 300 304 308 312 315 317 320 322 324 324 325 326 327
213 216 216 219 221 225 228 231 233 234 234 235 235 234 233 234 235 237 240 245 249 254 259 264 269 274 280 285 291 296 299 303 307 310 313 315 317 318 319 321 322 323 324
212 213 215 217 221 224 228 231 234 236 236 237 237 236 235 236 237 240 243 247 251 255 261 265 269 274 279 284 289 294 298 302 305 308 310 313 314 315 316 318 319 320 321
212 213 214 216 220 224 228 231 234 236 238 238 238 237 238 239 240 242 245 249 253 257 262 266 271 275 279 283 288 292 296 300 303 306 308 310 311 312 314 315 316 317 318
216 213 212 214 219 223 228 232 235 237 238 238 239 240 240 242 243 244 247 251 255 259 263 268 272 276 279 283 286 290 294 298 301 303 305 307 309 310 311 312 312 313 315
221 219 217 215 219 225 229 233 235 237 238 239 240 241 242 244 245 247 249 253 257 261 265 269 272 276 280 284 287 291 294 296 298 300 302 304 306 308 309 309 310 311 312
226 223 220 219 222 225 228 233 236 240 241 242 243 243 244 245 246 247 250 254 258 262 266 270 274 277 280 284 287 290 292 294 296 298 300 302 304 305 306 307 308 308 309
231 228 225 225 224 224 228 233 238 243 246 247 248 247 247 248 249 249 251 255 259 263 268 271 274 277 280 283 286 289 291 293 295 297 299 300 302 303 304 305 305 306 307
234 232 230 230 229 228 230 235 240 245 249 251 252 252 252 252 252 253 254 256 260 263 267 270 273 276 279 281 284 287 289 292 294 295 297 298 299 301 301 302 303 303 305
233 234 234 234 234 234 235 237 241 245 250 253 255 256 257 257 256 257 257 259 261 264 267 269 272 276 278 280 283 286 288 291 292 294 295 296 297 298 299 300 300 301 302
235 236 236 237 237 238 239 241 243 246 251 254 256 258 260 260 260 260 260 261 263 265 267 269 272 274 277 279 281 284 287 290 291 292 293 294 295 296 297 298 298 299 301
237 238 239 240 240 241 242 244 246 247 250 253 256 258 260 261 262 262 263 264 265 267 269 270 272 274 276 278 279 282 285 288 290 290 291 292 293 294 295 296 297 298 300
237 239 242 243 243 244 243 245 247 249 251 254 256 258 260 261 262 262 264 265 266 268 270 271 272 274 276 278 280 281 283 286 288 290 291 291 292 293 294 295 296 297 298
237 240 242 243 245 246 246 247 248 251 252 254 256 257 258 259 261 262 263 265 267 270 273 273 274 275 278 280 281 282 283 284 285 286 287 288 289 290 291 292 293 295 296
237 239 241 243 245 247 248 250 251 252 254 255 257 258 259 260 261 263 265 267 269 271 274 275 275 277 279 281 282 283 284 285 285 285 285 287 287 289 289 290 292 293 294
238 239 241 243 245 247 249 251 252 253 254 255 257 258 260 261 263 265 266 268 271 272 274 276 277 278 280 280 281 282 283 284 285 286 286 287 287 288 289 290 291 292 294
238 240 242 244 246 247 249 251 252 254 255 256 258 259 261 263 265 266 268 270 271 273 275 276 277 279 280 280 280 281 282 284 285 286 286 287 287 288 289 290 291 292 293
Height
5878 5881 5883 5884 5886 5887 5888 5889 5890 5891 5891 5892 5892 5893 5893 5893 5893 5893 5893 5893 5893 5893 5892 5892 5891 5890 5889 5888 5888 5887 5886 5885 5884 5883 5882 5881 5879 5878 5877 5876 5874 5872 5870
5876 5878 5880 5882 5884 5885 5886 5888 5889 5889 5890 5890 5891 5892 5892 5892 5892 5893 5893 5892 5892 5892 5892 5891 5890 5889 5889 5888 5887 5886 5885 5884 5883 5882 5881 5880 5879 5878 5876 5875 5873 5872 5870
5873 5875 5877 5879 5881 5883 5885 5886 5887 5888 5889 5889 5890 5890 5891 5891 5891 5892 5892 5892 5891 5891 5891 5890 5889 5889 5888 5887 5886 5885 5884 5883 5882 5882 5881 5879 5878 5877 5876 5874 5873 5871 5869
5869 5872 5875 5877 5879 5881 5883 5884 5885 5886 5887 5888 5888 5889 5890 5890 5890 5890 5891 5891 5890 5890 5890 5889 5888 5888 5887 5886 5885 5884 5883 5883 5882 5881 5880 5879 5877 5876 5875 5873 5871 5870 5868
5866 5869 5872 5874 5876 5879 5880 5882 5883 5884 5886 5886 5887 5887 5888 5889 5889 5889 5889 5889 5889 5889 5889 5888 5887 5887 5886 5885 5884 5883 5882 5881 5880 5880 5879 5878 5876 5875 5873 5872 5870 5868 5866
5862 5865 5868 5871 5873 5876 5878 5880 5881 5882 5884 5885 5885 5886 5887 5887 5888 5888 5888 5888 5888 5888 5887 5887 5886 5886 5885 5884 5883 5882 5881 5880 5879 5878 5877 5876 5875 5873 5872 5870 5868 5866 5864
5857 5861 5864 5868 5870 5873 5875 5877 5879 5880 5881 5883 5883 5884 5885 5885 5886 5886 5887 5887 5886 5886 5886 5885 5885 5884 5884 5883 5882 5881 5880 5879 5878 5877 5876 5875 5873 5872 5870 5868 5866 5864 5862
5853 5857 5860 5864 5867 5870 5872 5874 5876 5878 5879 5880 5881 5882 5883 5884 5884 5884 5885 5885 5885 5885 5884 5884 5884 5883 5882 5882 5881 5880 5879 5878 5877 5875 5874 5873 5871 5870 5868 5866 5864 5862 5860
5848 5852 5856 5860 5863 5866 5869 5871 5873 5875 5876 5878 5879 5880 5881 5881 5882 5882 5883 5883 5883 5883 5883 5882 5882 5881 5881 5880 5879 5878 5877 5876 5875 5874 5872 5871 5869 5868 5866 5864 5862 5860 5857
5842 5847 5852 5855 5859 5862 5865 5868 5870 5872 5873 5875 5876 5877 5878 5879 5880 5880 5880 5881 5881 5881 5880 5880 5880 5879 5879 5878 5877 5876 5875 5874 5872 5871 5870 5869 5867 5865 5863 5861 5859 5857 5854
5837 5842 5847 5851 5855 5858 5861 5864 5866 5868 5870 5871 5873 5874 5875 5876 5877 5877 5878 5878 5878 5878 5878 5878 5878 5877 5876 5876 5875 5874 5872 5871 5870 5869 5867 5866 5864 5862 5860 5858 5856 5853 5851
5832 5837 5842 5846 5850 5853 5856 5859 5862 5864 5866 5868 5869 5870 5871 5873 5874 5874 5875 5875 5875 5876 5876 5875 5875 5874 5874 5873 5872 5871 5870 5869 5867 5866 5864 5863 5861 5859 5857 5854 5852 5849 5846
5827 5831 5836 5841 5845 5849 5852 5855 5858 5860 5862 5864 5865 5867 5868 5869 5870 5871 5871 5872 5872 5872 5872 5872 5872 5871 5871 5870 5869 5868 5867 5866 5864 5863 5861 5859 5857 5855 5853 5850 5848 5845 5842
5823 5826 5830 5835 5840 5844 5847 5851 5853 5856 5858 5860 5861 5863 5864 5865 5866 5867 5868 5869 5869 5869 5869 5869 5869 5868 5867 5867 5866 5865 5863 5862 5861 5859 5857 5855 5853 5851 5849 5846 5843 5840 5837
5818 5822 5826 5830 5834 5838 5842 5846 5849 5851 5853 5855 5857 5858 5860 5861 5862 5863 5864 5865 5865 5865 5865 5865 5865 5864 5864 5863 5862 5861 5859 5858 5856 5855 5853 5851 5849 5846 5844 5841 5838 5835 5832
5813 5818 5821 5825 5829 5832 5836 5840 5843 5846 5848 5850 5852 5854 5855 5857 5858 5859 5860 5860 5861 5861 5861 5861 5861 5860 5860 5859 5858 5857 5855 5854 5852 5850 5848 5846 5844 5841 5839 5836 5833 5830 5827
5807 5812 5817 5820 5824 5827 5830 5834 5837 5840 5843 5845 5847 5848 5850 5852 5853 5854 5855 5855 5856 5856 5856 5856 5856 5856 5855 5854 5853 5852 5850 5849 5847 5845 5843 5841 5839 5836 5833 5830 5827 5824 5821
5801 5806 5811 5815 5819 5822 5825 5828 5831 5834 5837 5839 5841 5843 5844 5846 5847 5848 5849 5850 5851 5851 5851 5851 5851 5851 5850 5849 5848 5847 5845 5843 5841 5839 5837 5835 5832 5830 5827 5824 5821 5818 5815
5795 5800 5804 5809 5813 5816 5819 5822 5825 5828 5831 5833 5835 5837 5838 5839 5841 5842 5843 5844 5844 5845 5845 5845 5845 5844 5844 5843 5842 5841 5839 5837 5835 5833 5830 5828 5825 5823 5820 5817 5814 5811 5808
5788 5793 5798 5801 5806 5810 5813 5816 5819 5822 5825 5827 5829 5830 5831 5833 5834 5835 5836 5837 5837 5838 5838 5838 5838 5837 5837 5836 5835 5834 5832 5830 5828 5825 5823 5820 5818 5815 5813 5810 5807 5804 5801
5781 5786 5790 5794 5798 5802 5806 5809 5812 5815 5817 5820 5822 5823 5824 5826 5827 5828 5829 5829 5830 5830 5830 5830 5830 5830 5829 5828 5828 5827 5825 5822 5820 5818 5815 5812 5810 5807 5804 5802 5799 5796 5793
5775 5780 5784 5788 5791 5795 5798 5801 5804 5807 5810 5812 5814 5816 5817 5818 5819 5820 5821 5821 5821 5822 5822 5821 5821 5821 5820 5819 5818 5818 5817 5816 5812 5809 5806 5803 5801 5798 5796 5793 5790 5787 5784
5769 5773 5777 5781 5784 5787 5790 5794 5797 5799 5802 5804 5806 5808 5809 5810 5811 5811 5812 5812 5813 5813 5813 5813 5812 5812 5811 5810 5808 5807 5807 5806 5804 5802 5797 5794 5792 5789 5787 5784 5782 5779 5776
5762 5766 5770 5773 5777 5780 5783 5786 5788 5791 5794 5796 5797 5799 5800 5801 5802 5802 5803 5803 5803 5804 5804 5803 5803 5802 5801 5800 5798 5797 5796 5794 5793 5792 5789 5785 5782 5780 5778 5775 5773 5770 5767
5754 5758 5762 5765 5768 5771 5774 5777 5780 5783 5785 5786 5788 5790 5791 5791 5792 5793 5793 5793 5793 5794 5794 5793 5792 5792 5791 5790 5788 5786 5785 5783 5781 5780 5779 5776 5773 5771 5768 5766 5763 5760 5757
5746 5750 5754 5757 5760 5763 5766 5768 5771 5773 5775 5777 5778 5780 5781 5782 5782 5783 5783 5783 5783 5783 5783 5782 5782 5781 5780 5779 5777 5776 5774 5773 5771 5769 5767 5765 5762 5760 5758 5755 5753 5750 5747